Weather History for Montreal Mirabel, QC

Change the Weather History Date:

Thursday, November 24, 2011

  Actual Average Record
Temperature  
Mean Temperature 30 °F -  
Max Temperature 35 °F 35 °F 64 °F (1999)
Min Temperature 24 °F 23 °F 3 °F (1996)
Degree Days  
Heating Degree Days 36    
Moisture  
Dew Point 29 °F    
Average Humidity 92    
Maximum Humidity 100    
Minimum Humidity 86    
Precipitation  
Precipitation 0.00 in - - ()
Sea Level Pressure  
Sea Level Pressure 30.07 in    
Wind  
Wind Speed 3 mph ()    
Max Wind Speed 8 mph    
Max Gust Speed -    
Visibility 8.6 miles    
Events      
Averages and records for this station are not official NWS values.
T = Trace of Precipitation, MM = Missing Value Source: Averaged Metar Reports

Daily Weather History Graph

Daily Weather History Graph

Search for Another Location

Airport:

Trip Planner

Search our weather history database for the weather conditions in past years. The results will help you decide how hot, cold, wet, or windy it might be!

Date:

Astronomy

Nov. 24, 2011 Rise Set
Actual Time 7:07 AM EST 4:17 PM EST
Civil Twilight 6:34 AM EST 4:50 PM EST
Nautical Twilight 5:57 AM EST 5:27 PM EST
Astronomical Twilight 5:22 AM EST 6:02 PM EST
Moon 6:23 AM EST (11/24) 3:44 PM EST (11/24)
Length of Visible Light 10h 16m
Length of Day
9h 10m
Waning Crescent, 0% of the Moon is Illuminated
Nov 24
Waning Crescent
Nov 25
New
Dec 2
First Quarter
Dec 10
Full
Dec 17
Last Quarter

Hourly Weather History & Observations

Time (EST) Temp. Windchill Dew Point Humidity Pressure Visibility Wind Dir Wind Speed Gust Speed Precip Events Conditions
12:00 AM 26.6 °F - 23.0 °F 86% 30.10 in 15.0 mi Calm Calm - N/A   Overcast
1:00 AM 26.6 °F 22.6 °F 23.0 °F 86% 30.10 in 25.0 mi SSE 3.5 mph - N/A   Overcast
2:00 AM 24.8 °F - 23.0 °F 93% 30.09 in 25.0 mi Calm Calm - N/A   Overcast
3:00 AM 26.6 °F - 24.8 °F 93% 30.08 in 25.0 mi Calm Calm - N/A   Overcast
4:00 AM 26.6 °F - 24.8 °F 93% 30.07 in 15.0 mi Calm Calm - N/A   Overcast
5:00 AM 26.6 °F - 24.8 °F 93% 30.06 in 25.0 mi Calm Calm - N/A   Overcast
6:00 AM 28.4 °F - 24.8 °F 86% 30.06 in 25.0 mi Calm Calm - N/A   Overcast
7:00 AM 28.4 °F 24.6 °F 24.8 °F 86% 30.06 in 20.0 mi East 3.5 mph - N/A   Overcast
8:00 AM 28.4 °F 23.3 °F 26.6 °F 93% 30.08 in 8.0 mi South 4.6 mph - N/A   Overcast
8:41 AM 32.0 °F 26.4 °F 28.4 °F 87% - 7.0 mi SW 5.8 mph - N/A   Overcast
9:00 AM 32.0 °F 25.6 °F 28.4 °F 87% 30.09 in 7.0 mi WSW 6.9 mph - N/A   Overcast
9:39 AM 32.0 °F 26.4 °F 30.2 °F 93% - 6.0 mi WSW 5.8 mph - N/A   Overcast
10:00 AM 32.0 °F 24.8 °F 30.2 °F 93% 30.10 in 6.0 mi WSW 8.1 mph - N/A   Overcast
11:00 AM 33.8 °F 27.7 °F 30.2 °F 87% 30.09 in 12.0 mi WSW 6.9 mph - N/A   Overcast
1:00 PM 33.8 °F 28.6 °F 32.0 °F 93% 30.06 in 10.0 mi WSW 5.8 mph - N/A   Overcast
2:00 PM 35.6 °F 30.7 °F 32.0 °F 87% 30.06 in 10.0 mi WSW 5.8 mph - N/A   Overcast
3:00 PM 35.6 °F 30.7 °F 32.0 °F 87% 30.07 in 10.0 mi SW 5.8 mph - N/A   Overcast
3:50 PM 33.8 °F 30.8 °F 32.0 °F 93% - 7.0 mi WSW 3.5 mph - N/A   Light Drizzle
4:00 PM 33.8 °F 29.6 °F 32.0 °F 93% 30.07 in 6.0 mi SW 4.6 mph - N/A   Light Drizzle
5:00 PM 33.8 °F - 32.0 °F 93% 30.07 in 7.0 mi Calm Calm - N/A   Overcast
5:23 PM 33.8 °F 30.8 °F 32.0 °F 93% - 7.0 mi SSW 3.5 mph - N/A   Overcast
5:44 PM 33.8 °F 29.6 °F 33.8 °F 100% - 7.0 mi SSW 4.6 mph - N/A   Light Drizzle
6:00 PM 33.8 °F 30.8 °F 33.8 °F 100% 30.07 in 7.0 mi SW 3.5 mph - N/A   Light Drizzle
7:00 PM 33.8 °F - 32.0 °F 93% 30.08 in 6.0 mi SSW 2.3 mph - N/A   Light Drizzle
8:00 PM 33.8 °F 29.6 °F 33.8 °F 100% 30.04 in 5.0 mi SSW 4.6 mph - N/A   Light Drizzle
10:00 PM 35.6 °F 29.9 °F 33.8 °F 93% 30.03 in 6.0 mi SSW 6.9 mph - N/A   Light Drizzle
11:00 PM 35.6 °F 31.7 °F 33.8 °F 93% 30.02 in 6.0 mi SW 4.6 mph - N/A   Light Drizzle